[keps] orb07130.2l.amsat
Ray Hoad
r.hoad at att.net
Thu May 10 19:11:05 PDT 2007
SB KEPS @ AMSAT $ORB07130.N
2Line Orbital Elements 07130.AMSAT
HR AMSAT ORBITAL ELEMENTS FOR AMATEUR SATELLITES IN NASA FORMAT
FROM WA5QGD FORT WORTH,TX May 10, 2007
Send SUBSCRIBE KEPS/UNSUBSCRIBE KEPS to majordomo at amsat.org only
BID: ORB07130.N
DECODE 2-LINE ELSETS WITH THE FOLLOWING KEY:
1 AAAAAU 00 0 0 BBBBB.BBBBBBBB .CCCCCCCC 00000-0 00000-0 0 DDDZ
2 AAAAA EEE.EEEE FFF.FFFF GGGGGGG HHH.HHHH III.IIII JJ.JJJJJJJJKKKKKZ
KEY: A-CATALOGNUM B-EPOCHTIME C-DECAY D-ELSETNUM E-INCLINATION F-RAAN
G-ECCENTRICITY H-ARGPERIGEE I-MNANOM J-MNMOTION K-ORBITNUM Z-CHECKSUM
TO ALL RADIO AMATEURS BT
AO-07
1 07530U 74089B 07129.91419196 -.00000028 00000-0 10000-3 0 08716
2 07530 101.5165 169.0436 0012017 331.8686 028.1732 12.53572666486320
AO-10
1 14129U 83058B 07128.71438669 -.00000101 00000-0 10000-3 0 03815
2 14129 026.6070 278.0780 6059083 020.4788 355.8504 02.05870668179753
UO-11
1 14781U 84021B 07129.70984355 .00000364 00000-0 55995-4 0 03686
2 14781 098.1911 151.6662 0008223 299.8447 060.1937 14.79549441244045
RS-15
1 23439U 94085A 07129.93397140 -.00000039 00000-0 10597-3 0 00610
2 23439 064.8185 068.7803 0160714 197.6125 161.9179 11.27551959509381
FO-29
1 24278U 96046B 07129.97003342 .00000053 00000-0 89779-4 0 05083
2 24278 098.5481 094.7553 0350518 182.2060 177.7548 13.52929824529734
SO-33
1 25509U 98061B 07129.95985866 .00000131 00000-0 15473-4 0 09247
2 25509 031.4284 081.8672 0354781 093.1546 270.9753 14.28165220445785
AO-40
1 26609U 00072B 07129.32374177 -.00000006 00000-0 10000-3 0 8759
2 26609 005.2477 149.2056 7988857 313.3915 003.2895 01.25587486 29952
VO-52
1 28650U 05017B 07130.41696003 .00000062 00000-0 14669-4 0 6236
2 28650 097.8318 201.9753 0027750 019.0030 341.2256 14.81307363108828
PO-63
1 29712U 07001D 07130.64680249 .00000633 00000-0 91262-4 0 3483
2 29712 097.9233 190.3238 0012940 249.0319 110.9509 14.79671194 17783
AO-16
1 20439U 90005D 07130.42286754 .00000017 00000-0 21442-4 0 302
2 20439 098.1952 127.0623 0010140 303.5454 056.4777 14.31758794903147
LO-19
1 20442U 90005G 07129.90867385 -.00000050 00000-0 -36689-5 0 09580
2 20442 098.1804 135.9783 0011181 304.1897 055.8245 14.31998944903210
AO-27
1 22825U 93061C 07130.39324391 -.00000039 00000-0 11133-5 0 6807
2 22825 098.3287 101.9287 0009020 019.9066 340.2487 14.29207346710091
IO-26
1 22826U 93061D 07129.81709417 .00000008 00000-0 19503-4 0 3764
2 22826 098.3214 102.4643 0009761 017.4923 342.6595 14.29453451710097
PO-28
1 22829U 93061G 07130.42151311 -.00000066 00000-0 -94856-5 0 6540
2 22829 098.3101 104.2146 0009759 350.9772 009.1245 14.30152858710419
GO-32
1 25397U 98043D 07129.70171343 -.00000179 00000-0 -61024-4 0 02983
2 25397 098.4160 178.5937 0001311 023.6114 336.5115 14.23124083458682
MO-46
1 26548U 00057D 07130.42433257 .00000147 00000-0 35888-4 0 7905
2 26548 064.5575 299.4894 0020312 201.3586 158.6684 14.83134044357934
NO-44
1 26931U 01043C 07130.37664088 -.00000027 00000-0 21725-4 0 5821
2 26931 067.0518 244.8859 0007497 275.4760 084.5451 14.29483350292692
SO-50
1 27607U 02058C 07129.65085536 -.00000014 00000-0 19714-4 0 03091
2 27607 064.5581 202.0345 0049629 011.1505 349.0680 14.71254595235454
CO-55
1 27844U 03031E 07129.92761236 .00000056 00000-0 46229-4 0 00244
2 27844 098.7186 138.7530 0009315 196.8386 163.2484 14.20508999200043
CO-57
1 27848U 03031J 07129.94330458 .00000035 00000-0 36895-4 0 09848
2 27848 098.7179 137.9776 0009162 202.0835 157.9941 14.20328271200020
AO-51
1 28375U 04025K 07129.81069704 .00000017 00000-0 18314-4 0 08112
2 28375 098.1165 171.1010 0083880 299.6117 059.6727 14.40565444150199
CO-56
1 28941U 06005C 07129.90736683 .00029001 24697-5 30021-3 0 04445
2 28941 098.1322 186.7646 0231261 048.8509 313.2439 15.38571875067545
HO-59
1 29484U 06041F 07130.60431178 .00053721 31378-5 37806-3 0 3085
2 29484 098.2880 174.7192 0217926 040.6791 321.0506 15.48668414 35258
NO-60
1 29661U 06055C 07130.85085129 .00297272 53808-4 32603-3 0 2514
2 29661 051.6333 282.0312 0006847 252.5209 107.4986 16.09120077 22434
NO-61
1 29664U 06055F 07130.53871726 .00029764 11421-4 11136-3 0 1564
2 29664 051.6324 290.5268 0013524 195.3923 164.6463 15.89259165 22161
CP4
1 31122U 07012F 07129.88415509 .00000599 00000-0 14251-3 0 00336
2 31122 098.0834 204.4005 0087613 143.8171 216.8964 14.54999330003284
CP3
1 31128U 07012M 07129.72664898 -.00000047 00000-0 00000-0 0 00245
2 31128 098.0842 204.1367 0104028 144.2035 216.6196 14.51829688003247
LIBERT
1 31129U 07012N 07130.69019377 .00000386 00000-0 10000-3 0 676
2 31129 098.0829 205.0632 0103626 141.3091 219.5569 14.51914189 3361
NOAA-10
1 16969U 86073A 07129.67752480 -.00000041 00000-0 17580-5 0 06510
2 16969 098.7469 146.8350 0011550 281.8629 078.1240 14.27323946073734
NOAA-11
1 19531U 88089A 07129.87278997 .00000222 00000-0 13774-3 0 06479
2 19531 098.8099 219.5121 0012255 137.0856 223.1287 14.14845214960734
NOAA-12
1 21263U 91032A 07129.97987170 -.00000142 00000-0 -41046-4 0 01435
2 21263 098.7514 127.2857 0012223 215.1074 144.9298 14.25526863830800
MET-3/5
1 21655U 91056A 07130.87132106 .00000051 00000-0 10000-3 0 2633
2 21655 082.5528 029.3034 0012736 307.1447 052.8504 13.17011055756496
MET-2/21
1 22782U 93055A 07130.40363227 .00000071 00000-0 51350-4 0 8200
2 22782 082.5475 071.8872 0022232 346.8069 013.2517 13.83616641691299
OKEAN-4
1 23317U 94066A 07130.45052556 .00000122 00000-0 12159-4 0 2578
2 23317 082.5389 331.7462 0023117 021.0974 339.1200 14.82498402678467
NOAA-14
1 23455U 94089A 07129.71955725 .00000208 00000-0 13405-3 0 06273
2 23455 098.9890 195.6940 0009198 203.4812 156.5927 14.13717817637208
SICH-1
1 23657U 95046A 07129.78989592 .00000209 00000-0 23494-4 0 00610
2 23657 082.5253 113.2956 0024462 013.9210 346.2705 14.81478908630344
NOAA-15
1 25338U 98030A 07129.96503151 .00000030 00000-0 31203-4 0 09862
2 25338 098.5305 127.7279 0011290 136.7431 223.4655 14.24639358467241
RESURS
1 25394U 98043A 07129.77729476 .00000021 00000-0 27296-4 0 6366
2 25394 098.4404 185.8203 0001215 343.0119 017.1019 14.24134907458888
FENGYUN1
1 25730U 99025A 07130.81566835 .00000666 00000-0 41990-3 0 1003
2 25730 098.6890 116.1033 0019500 232.5586 127.3824 14.07474374412218
OKEAN-0
1 25860U 99039A 07130.61038822 .00000062 00000-0 16683-4 0 483
2 25860 097.7311 134.6169 0001693 093.7147 266.4251 14.73450114419966
NOAA-16
1 26536U 00055A 07129.93658852 -.00000101 00000-0 -29798-4 0 03994
2 26536 099.1141 106.2181 0009702 282.4136 077.5966 14.12423005341709
NOAA-17
1 27453U 02032A 07129.94024475 .00000220 00000-0 11485-3 0 04117
2 27453 098.5799 200.1552 0011643 200.5262 159.5453 14.23877151253277
NOAA-18
1 28654U 05018A 07129.75033416 .00000388 00000-0 23976-3 0 09480
2 28654 098.8270 071.6817 0014817 020.8163 339.3606 14.11062516101438
HUBBLE
1 20580U 90037B 07130.88710561 .00000373 00000-0 16117-4 0 8713
2 20580 028.4672 073.3402 0003819 068.5622 291.5374 15.00234404734351
UARS
1 21701U 91063B 07129.98736260 .00004967 00000-0 85500-4 0 00641
2 21701 056.9715 119.6704 0099239 117.0216 244.1032 15.47822287859839
PO-34
1 25520U 98064B 07129.95229422 .00000465 00000-0 13204-4 0 07363
2 25520 028.4602 004.6481 0005836 197.6688 162.3709 15.16987414471712
ISS
1 25544U 98067A 07130.96372788 .00017433 00000-0 10487-3 0 1826
2 25544 051.6360 296.2310 0009980 168.2984 336.0543 15.77784403484893
OO-38
1 26063U 00004C 07130.60913237 -.00000030 00000-0 10084-4 0 9062
2 26063 100.2275 126.2913 0036441 265.8821 093.8184 14.35804221381656
UWE-1
1 28892U 05043C 07129.95678184 .00000118 00000-0 34601-4 0 07433
2 28892 098.1341 027.3519 0016321 231.1577 128.8165 14.59498208081632
CO-58
1 28895U 05043F 07129.73103329 .00000111 00000-0 33159-4 0 07234
2 28895 098.1381 027.3281 0016847 231.4836 128.4851 14.59546685081483
NCUBE2
1 28897U 05043H 07130.70122736 .00000180 00000-0 47463-4 0 2489
2 28897 098.1349 028.2390 0016204 230.2817 129.6961 14.59709044 73906
NMARS
1 29662U 06055D 07126.39603970 .07031946 12599-4 11450-3 0 2632
2 29662 051.6121 302.3682 0004459 252.1654 110.7411 16.47981436 21652
FCAL
1 29667U 06055J 07130.87437127 .00020884 00000-0 81540-4 0 1341
2 29667 051.6360 289.7909 0015064 197.2946 162.7547 15.86865503 22071
FALCON
1 30776U 07006E 07129.98407340 .00000280 00000-0 23657-4 0 00561
2 30776 035.4328 084.2490 0000193 171.4620 188.6098 15.02697033009309
MAST
1 31126U 07012K 07130.73613529 .00000395 00000-0 10000-3 0 284
2 31126 098.0826 205.1622 0095742 141.0493 219.7637 14.53337576 3412
CAPE1
1 31130U 07012P 07129.93314808 .00000221 00000-0 61954-4 0 00224
2 31130 098.0821 204.3316 0104149 143.7103 217.1228 14.51847871003063
/EX
More information about the Keps
mailing list